Cape Cod CGAS, MA

9:16 PM EST on November 19, 2017 (GMT -0500)
Cape Cod Coast Guard Air Station

Weather History for KFMH - June, 2013

Change the Weather History Date:

Wednesday, June 19, 2013

  Actual Average Record
Temperature  
Mean Temperature 61 °F -  
Max Temperature 68 °F 72 °F 80 °F (1997)
Min Temperature 54 °F 56 °F 48 °F (2012)
Degree Days  
Heating Degree Days 4    
Growing Degree Days 11 (Base 50)    
Moisture  
Dew Point 52 °F    
Average Humidity 73    
Maximum Humidity 100    
Minimum Humidity 46    
Precipitation  
Precipitation 0.02 in - - ()
Sea Level Pressure  
Sea Level Pressure 29.99 in    
Wind  
Wind Speed 10 mph (NNE)    
Max Wind Speed 22 mph    
Max Gust Speed 24 mph    
Visibility 10 miles    
Events Rain    
Averages and records for this station are not official NWS values.
T = Trace of Precipitation, MM = Missing Value Source: NWS Daily Summary

Daily Weather History Graph

Daily Weather History Graph

Search for Another Location

Airport or City:

Trip Planner

Search our weather history database for the weather conditions in past years. The results will help you decide how hot, cold, wet, or windy it might be!

Date:

Astronomy

Jun. 19, 2013 Rise Set
Actual Time 5:07 AM EDT 8:19 PM EDT
Civil Twilight 4:33 AM EDT 8:53 PM EDT
Nautical Twilight 3:49 AM EDT 9:37 PM EDT
Astronomical Twilight 2:56 AM EDT 10:30 PM EDT
Moon 4:06 PM EDT (6/19) 1:52 AM EDT (6/19)
Length of Visible Light 16h 20m
Length of Day
15h 12m
Waxing Gibbous, 80% of the Moon is Illuminated
Jun 19
Waxing Gibbous
Jun 23
Full
Jun 30
Last Quarter
Jul 8
New
Jul 15
First Quarter

Hourly Weather History & Observations

Time (EDT) Temp. Dew Point Humidity Pressure Visibility Wind Dir Wind Speed Gust Speed Precip Events Conditions
12:15 AM 59.0 °F 57.2 °F 94% 29.87 in 7.0 mi NNE 11.5 mph - N/A Rain Light Rain
12:35 AM 59.0 °F 57.2 °F 94% 29.86 in 7.0 mi NNE 8.1 mph - N/A Rain Light Rain
12:55 AM 59.0 °F 57.2 °F 94% 29.87 in 7.0 mi NNE 5.8 mph - 0.01 in Rain Light Rain
1:15 AM 57.2 °F 57.2 °F 100% 29.87 in 8.0 mi NNE 9.2 mph - N/A Rain Light Rain
1:35 AM 57.2 °F 57.2 °F 100% 29.86 in 10.0 mi NNE 9.2 mph 17.3 mph N/A Rain Light Rain
1:55 AM 57.2 °F 57.2 °F 100% 29.86 in 10.0 mi NNE 12.7 mph 17.3 mph 0.01 in   Overcast
2:15 AM 57.2 °F 57.2 °F 100% 29.85 in 10.0 mi NNE 10.4 mph 17.3 mph N/A   Overcast
2:35 AM 57.2 °F 57.2 °F 100% 29.86 in 10.0 mi North 11.5 mph 19.6 mph N/A Rain Light Rain
2:55 AM 57.2 °F 55.4 °F 94% 29.87 in 10.0 mi NNE 11.5 mph 19.6 mph N/A   Overcast
3:15 AM 57.2 °F 55.4 °F 94% 29.87 in 10.0 mi North 11.5 mph 20.7 mph N/A   Overcast
3:35 AM 57.2 °F 55.4 °F 94% 29.87 in 10.0 mi NNE 11.5 mph 18.4 mph N/A   Overcast
3:55 AM 57.2 °F 55.4 °F 94% 29.87 in 10.0 mi NNE 9.2 mph 18.4 mph N/A   Overcast
4:15 AM 57.2 °F 55.4 °F 94% 29.87 in 10.0 mi NNE 12.7 mph 17.3 mph N/A   Overcast
4:35 AM 57.2 °F 53.6 °F 88% 29.87 in 10.0 mi NNE 11.5 mph 18.4 mph N/A   Overcast
4:55 AM 57.2 °F 53.6 °F 88% 29.88 in 10.0 mi NNE 11.5 mph 17.3 mph N/A   Overcast
5:15 AM 57.2 °F 51.8 °F 82% 29.88 in 10.0 mi NNE 10.4 mph 16.1 mph N/A   Overcast
5:35 AM 57.2 °F 50.0 °F 77% 29.88 in 10.0 mi NNE 11.5 mph 17.3 mph N/A   Overcast
5:55 AM 57.2 °F 51.8 °F 82% 29.89 in 10.0 mi NNE 9.2 mph 17.3 mph N/A   Overcast
6:15 AM 57.2 °F 53.6 °F 88% 29.89 in 10.0 mi NNE 9.2 mph - N/A   Mostly Cloudy
6:35 AM 57.2 °F 53.6 °F 88% 29.89 in 10.0 mi NNE 11.5 mph 18.4 mph N/A   Mostly Cloudy
6:55 AM 57.2 °F 53.6 °F 88% 29.91 in 10.0 mi NNE 9.2 mph 20.7 mph N/A   Partly Cloudy
7:15 AM 57.2 °F 53.6 °F 88% 29.92 in 10.0 mi NNE 11.5 mph 19.6 mph N/A   Mostly Cloudy
7:35 AM 59.0 °F 51.8 °F 77% 29.93 in 10.0 mi NNE 12.7 mph 19.6 mph N/A   Partly Cloudy
7:55 AM 60.8 °F 51.8 °F 72% 29.94 in 10.0 mi NNE 12.7 mph 19.6 mph N/A   Clear
8:15 AM 62.6 °F 51.8 °F 68% 29.95 in 10.0 mi NE 13.8 mph 24.2 mph N/A   Clear
8:35 AM 62.6 °F 53.6 °F 72% 29.95 in 10.0 mi NNE 13.8 mph 20.7 mph N/A   Clear
8:55 AM 62.6 °F 51.8 °F 68% 29.95 in 10.0 mi NNE 15.0 mph 21.9 mph N/A   Clear
9:15 AM 62.6 °F 51.8 °F 68% 29.96 in 10.0 mi NNE 13.8 mph 23.0 mph N/A   Clear
9:35 AM 64.4 °F 51.8 °F 64% 29.97 in 10.0 mi NNE 12.7 mph 23.0 mph N/A   Clear
9:55 AM 64.4 °F 50.0 °F 59% 29.98 in 10.0 mi NNE 11.5 mph 20.7 mph N/A   Clear
10:15 AM 64.4 °F 50.0 °F 59% 29.98 in 10.0 mi NNE 12.7 mph 17.3 mph N/A   Clear
10:55 AM 66.2 °F 50.0 °F 56% 30.00 in 10.0 mi NE 15.0 mph 19.6 mph N/A   Clear
11:15 AM 66.2 °F 48.2 °F 52% 30.00 in 10.0 mi NNE 13.8 mph 19.6 mph N/A   Clear
11:35 AM 66.2 °F 48.2 °F 52% 29.99 in 10.0 mi NE 15.0 mph - N/A   Clear
11:55 AM 66.2 °F 50.0 °F 56% 29.99 in 10.0 mi NNE 12.7 mph 20.7 mph N/A   Clear
12:15 PM 68.0 °F 50.0 °F 52% 30.00 in 10.0 mi NE 11.5 mph 17.3 mph N/A   Clear
12:35 PM 68.0 °F 50.0 °F 52% 30.00 in 10.0 mi North 12.7 mph 17.3 mph N/A   Clear
12:55 PM 68.0 °F 53.6 °F 60% 30.01 in 10.0 mi NE 15.0 mph 18.4 mph N/A   Clear
1:15 PM 68.0 °F 53.6 °F 60% 30.01 in 10.0 mi NE 13.8 mph 17.3 mph N/A   Clear
1:35 PM 68.0 °F 53.6 °F 60% 30.01 in 10.0 mi NNE 13.8 mph 19.6 mph N/A   Clear
1:55 PM 68.0 °F 53.6 °F 60% 30.02 in 10.0 mi North 10.4 mph 16.1 mph N/A   Clear
2:15 PM 66.2 °F 53.6 °F 64% 30.03 in 10.0 mi NE 12.7 mph 19.6 mph N/A   Clear
2:35 PM 66.2 °F 55.4 °F 68% 30.03 in 10.0 mi NE 13.8 mph - N/A   Clear
2:55 PM 66.2 °F 55.4 °F 68% 30.04 in 10.0 mi NNE 13.8 mph - N/A   Clear
3:15 PM 66.2 °F 53.6 °F 64% 30.04 in 10.0 mi NE 15.0 mph 18.4 mph N/A   Clear
3:35 PM 66.2 °F 51.8 °F 60% 30.05 in 10.0 mi NNE 10.4 mph 18.4 mph N/A   Clear
3:55 PM 66.2 °F 50.0 °F 56% 30.05 in 10.0 mi NNE 9.2 mph 17.3 mph N/A   Clear
4:15 PM 66.2 °F 48.2 °F 52% 30.05 in 10.0 mi NNE 9.2 mph 17.3 mph N/A   Clear
4:35 PM 66.2 °F 48.2 °F 52% 30.05 in 10.0 mi NE 8.1 mph - N/A   Clear
4:55 PM 66.2 °F 46.4 °F 49% 30.05 in 10.0 mi ENE 10.4 mph - N/A   Clear
5:15 PM 68.0 °F 46.4 °F 46% 30.05 in 10.0 mi NE 9.2 mph - N/A   Clear
5:35 PM 68.0 °F 48.2 °F 49% 30.06 in 10.0 mi ENE 6.9 mph - N/A   Clear
5:55 PM 66.2 °F 46.4 °F 49% 30.06 in 10.0 mi ENE 10.4 mph - N/A   Clear
6:15 PM 66.2 °F 46.4 °F 49% 30.06 in 10.0 mi ENE 10.4 mph - N/A   Clear
6:35 PM 66.2 °F 46.4 °F 49% 30.07 in 10.0 mi ENE 8.1 mph - N/A   Clear
6:55 PM 66.2 °F 48.2 °F 52% 30.07 in 10.0 mi ENE 6.9 mph - N/A   Clear
7:15 PM 64.4 °F 48.2 °F 56% 30.08 in 10.0 mi East 4.6 mph - N/A   Clear
7:35 PM 62.6 °F 48.2 °F 59% 30.08 in 10.0 mi East 4.6 mph - N/A   Clear
7:55 PM 62.6 °F 50.0 °F 63% 30.09 in 10.0 mi Calm Calm - N/A   Clear
8:15 PM 59.0 °F 50.0 °F 72% 30.09 in 10.0 mi Calm Calm - N/A   Clear
8:35 PM 59.0 °F 50.0 °F 72% 30.10 in 10.0 mi WSW 4.6 mph - N/A   Mostly Cloudy
8:55 PM 59.0 °F 50.0 °F 72% 30.11 in 10.0 mi SSW 5.8 mph - N/A   Overcast
9:15 PM 60.8 °F 53.6 °F 77% 30.13 in 10.0 mi SW 5.8 mph - N/A   Mostly Cloudy
9:35 PM 59.0 °F 53.6 °F 82% 30.14 in 10.0 mi SW 5.8 mph - N/A   Scattered Clouds
9:55 PM 59.0 °F 53.6 °F 82% 30.15 in 10.0 mi SW 3.5 mph - N/A   Partly Cloudy
10:15 PM 59.0 °F 53.6 °F 82% 30.15 in 10.0 mi WSW 3.5 mph - N/A   Partly Cloudy
10:35 PM 59.0 °F 55.4 °F 88% 30.15 in 10.0 mi SSW 3.5 mph - N/A   Scattered Clouds
10:55 PM 57.2 °F 55.4 °F 94% 30.16 in 10.0 mi Calm Calm - N/A   Mostly Cloudy
11:15 PM 57.2 °F 53.6 °F 88% 30.16 in 10.0 mi SW 3.5 mph - N/A   Overcast
11:35 PM 59.0 °F 55.4 °F 88% 30.17 in 10.0 mi SSW 3.5 mph - N/A   Overcast
11:55 PM 57.2 °F 55.4 °F 94% 30.17 in 10.0 mi SSW 3.5 mph - N/A   Overcast